SCP
1 0 0 0 0 0 0 0 0 0 0 0 0 0 0 0 0 0 0 0 0 0 0 0 0 0 0 0 0 0 1 0 0 0 0 0 0 0 0 0 0 0 0 0
1 0 0 0 0 0 0 0 0 0 0 0 0 0 0 0 0 0 0 0 0 0 0 0 0 0 0 0 0 0 1 0 0 0 0 0 0 0 0 0 0 0 0 0
0 0 0 0 0 0 0 0 0 0 0 0 0 0 0 0 0 0 0 0 0 0 0 0 0 0 0 0 0 0 0 0 0 0 0 0 0 0 0 0 0 0 0 0
0 0 0 0 0 0 0 0 0 0 0 0 0 0 0 0 0 0 0 0 0 0 0 0 0 0 0 0 0 0 0 0 0 0 0 0 0 0 0 0 0 0 0 0
0 0 0 0 0 0 0 0 0 0 0 0 0 0 0 0 0 0 0 0 0 0 0 0 0 0 0 0 0 0 0 0 0 0 0 0 0 0 0 0 0 0 0 0
0 0 0 0 0 0 0 0 0 0 0 0 0 0 0 0 0 0 0 0 0 0 0 0 0 0 0 0 0 0 0 0 0 1 0 0 0 0 0 0 0 0 0 0
0 0 0 0 0 0 0 0 0 0 0 0 0 0 0 0 0 0 0 0 0 0 0 0 0 0 0 0 0 0 0 0 1 1 1 0 0 0 0 0 0 0 0 0
0 0 0 0 0 0 0 0 0 0 0 0 0 0 0 0 0 0 0 0 0 0 0 0 0 0 0 0 0 0 0 0 0 1 1 1 0 0 0 0 0 0 0 0
0 0 0 0 0 0 0 0 0 0 0 0 0 0 0 0 0 0 0 0 0 0 0 0 0 0 0 0 0 0 0 0 0 0 1 1 0 0 0 0 0 0 0 0
0 0 0 0 0 0 0 0 0 0 0 0 0 0 0 0 0 0 0 0 0 0 0 0 0 0 0 0 0 0 0 0 0 0 0 0 0 0 0 0 0 0 0 0
0 0 0 0 0 0 0 0 0 0 0 0 0 0 0 0 0 0 0 0 0 0 0 0 0 0 0 0 0 0 0 0 0 0 0 0 0 0 0 0 0 0 0 0
0 0 0 0 0 0 0 0 0 0 0 0 0 0 0 0 0 0 0 0 0 0 0 0 0 0 0 0 0 0 0 0 0 0 0 0 0 0 0 0 0 0 0 0
0 0 0 0 0 0 0 0 0 0 0 0 0 0 0 0 0 0 0 0 0 0 0 0 0 0 0 0 0 0 0 0 0 0 0 0 0 0 0 0 0 0 0 0
0 0 0 0 0 0 0 0 0 0 0 0 0 0 0 0 0 0 0 0 0 0 0 0 0 0 0 0 0 0 0 0 0 0 0 0 0 0 0 0 0 0 0 0
0 0 0 0 0 0 0 0 0 0 0 0 0 0 0 0 0 0 0 0 0 0 0 0 0 0 0 0 0 0 0 0 0 0 0 0 0 0 0 0 0 0 0 0
0 0 0 0 0 0 0 0 0 0 0 0 0 0 0 0 0 0 0 0 0 0 0 0 0 0 0 0 0 0 0 0 0 0 0 0 0 0 0 0 0 0 0 0
0 0 0 0 0 0 0 0 0 0 0 0 0 0 0 0 0 0 0 0 0 0 0 0 0 0 0 0 0 0 0 0 0 0 0 0 0 0 0 0 0 0 0 0
0 0 0 0 0 0 0 0 0 0 0 0 0 0 0 0 0 0 0 0 0 0 0 0 0 0 0 0 0 0 0 0 0 0 0 0 0 0 0 0 0 0 0 0
0 0 0 0 0 0 0 0 0 0 0 0 0 0 0 0 0 0 0 0 0 0 0 0 0 0 0 0 0 0 0 0 0 0 0 0 0 0 0 0 0 0 0 0
0 0 0 0 0 0 0 0 0 0 0 0 0 0 0 0 0 0 0 0 0 0 0 0 0 0 0 0 0 0 0 0 0 0 0 0 0 0 0 0 0 0 0 0
0 0 0 0 0 0 0 0 0 0 0 0 0 0 0 0 0 0 0 0 0 0 0 0 0 0 0 0 0 0 0 0 0 0 0 0 0 0 0 0 0 0 0 0
0 0 0 0 0 0 0 0 0 0 0 0 0 0 0 0 0 0 0 0 0 0 0 0 0 0 0 0 0 0 0 0 0 0 0 0 0 0 0 0 0 0 0 0
0 0 0 0 0 0 0 0 0 0 0 0 0 0 0 0 0 0 0 0 0 0 0 0 0 0 0 0 0 0 0 0 0 0 0 0 0 0 0 0 0 0 0 0
0 0 0 0 0 0 0 0 0 0 0 0 0 0 0 0 0 0 0 0 0 0 0 0 0 0 0 0 0 0 0 0 0 0 0 0 0 0 0 0 0 0 0 0
0 0 0 0 0 0 0 0 0 0 0 0 0 0 0 0 0 0 0 0 0 0 0 0 0 0 0 0 0 0 0 0 0 0 0 0 0 0 0 0 0 0 0 0
0 0 0 0 0 0 0 0 0 0 0 0 0 0 0 0 0 0 0 0 0 0 0 0 0 0 0 0 0 0 0 0 0 0 0 0 0 0 0 0 0 0 0 0
Wind_Speed
9 10 14 18 20 18 15 17 18 16 13 15 18 18 15 13 12 12 13 13 13 13 13 13 14 14 13 14 15 16 16 14 12 10 10 9 8 7 6 6 8 9 8 9
10 17 19 17 18 19 19 18 17 13 11 12 13 17 15 16 15 12 12 13 13 12 13 14 14 14 14 15 16 16 17 16 14 11 10 8 7 6 6 5 7 8 9 9
17 14 15 17 19 19 21 19 16 13 9 8 9 14 16 14 15 14 14 12 12 13 13 13 14 15 14 15 16 15 17 16 15 12 9 7 6 5 6 8 7 8 9 9
15 16 16 17 18 18 19 18 16 14 10 8 9 9 14 15 16 17 16 14 13 13 12 13 14 15 15 15 15 15 16 16 16 15 13 13 11 10 10 8 7 8 9 9
11 12 15 19 19 17 14 12 14 13 11 10 11 10 9 13 18 19 17 16 14 13 12 12 13 14 14 14 14 14 15 15 15 15 15 14 11 9 7 7 9 10 9 10
15 12 12 14 15 15 11 10 9 8 8 14 16 13 9 11 17 17 16 16 16 14 12 11 11 12 12 12 12 13 14 14 15 16 16 15 14 12 11 11 11 10 7 8
11 14 12 11 11 11 11 8 7 9 10 12 13 13 11 9 11 14 15 15 15 14 13 12 11 12 13 14 14 14 15 14 15 16 16 16 15 14 13 12 11 10 8 8
6 9 10 9 12 9 14 13 9 7 8 7 12 14 9 11 9 7 8 10 12 13 12 12 12 12 13 15 16 16 16 15 15 16 16 15 14 11 9 11 9 10 9 9
5 8 7 9 9 11 11 14 10 6 5 5 8 8 8 9 10 8 8 8 9 11 12 11 11 12 13 14 15 16 17 15 15 16 15 14 14 13 11 10 9 8 7 8
4 7 8 8 7 10 9 7 7 7 6 6 8 12 9 12 12 12 11 10 9 8 9 10 10 11 12 13 13 14 15 15 13 14 14 12 13 13 11 10 10 9 10 9
4 5 6 6 9 10 8 9 7 6 6 4 4 6 8 10 11 11 10 9 9 9 8 8 8 9 10 11 12 13 14 13 13 14 13 12 12 12 11 10 10 10 9 10
4 4 5 8 7 7 8 8 8 6 6 5 4 4 2 4 5 6 7 6 7 7 6 7 7 7 8 9 11 12 12 13 13 12 12 12 11 11 11 10 10 10 9 9
4 3 4 4 3 3 6 7 9 8 5 6 6 6 6 4 1 1 2 4 4 6 6 5 6 7 8 8 9 9 11 11 11 11 12 12 12 11 11 10 9 9 9 9
6 3 5 6 5 4 7 9 10 9 7 7 10 9 7 5 1 1 1 1 3 4 6 6 6 6 7 7 8 8 8 9 10 11 11 12 12 12 11 10 9 9 9 9
4 5 7 11 11 9 10 12 13 13 12 10 11 13 11 7 3 1 1 0 2 3 4 5 6 6 6 6 7 7 8 8 9 10 11 11 10 10 10 10 9 9 9 8
3 5 8 10 9 9 11 13 15 16 16 16 15 14 7 6 1 0 1 1 2 3 3 4 5 6 7 8 8 7 7 8 9 9 9 9 10 10 10 10 9 9 8 8
3 4 5 7 8 8 10 11 12 13 13 13 15 11 6 5 3 1 1 2 2 2 3 4 5 6 7 8 8 9 8 8 8 9 9 10 10 10 10 10 10 9 9 8
7 5 4 6 6 8 6 3 6 8 8 7 9 7 6 6 4 2 1 1 0 1 2 3 3 3 4 6 7 7 8 8 9 9 9 9 10 10 10 10 10 9 8 8
11 8 5 4 6 8 6 3 5 6 7 5 6 6 7 7 4 2 3 3 2 2 2 2 2 2 3 6 8 8 8 8 9 9 10 10 10 11 11 11 10 8 8 8
7 7 5 5 5 6 3 6 5 4 5 4 5 5 6 5 3 4 7 6 5 4 2 0 1 2 3 4 7 9 9 9 10 9 9 10 10 11 11 11 9 7 8 8
4 6 8 8 7 6 4 6 3 1 3 6 5 4 5 4 4 6 7 6 5 5 4 2 1 2 3 4 6 7 8 9 9 8 8 9 9 10 10 9 8 9 8 8
5 4 6 6 7 7 3 3 1 3 5 6 5 5 6 7 7 7 6 6 5 4 3 2 0 1 2 5 6 7 7 7 8 8 8 9 9 8 9 10 9 9 9 9
6 5 4 5 6 5 4 3 3 4 5 5 5 7 7 7 7 7 7 6 5 4 3 2 1 1 2 4 6 7 6 7 9 9 9 9 9 8 9 10 10 9 8 8
5 5 6 7 8 8 7 5 5 5 6 6 6 7 7 7 8 7 7 5 5 4 3 2 1 2 3 3 4 5 6 8 10 10 9 9 9 9 8 7 7 8 8 8
7 5 6 9 9 8 7 5 5 6 6 7 8 7 7 7 8 7 7 6 5 5 4 3 3 4 5 4 4 5 7 9 9 10 9 9 8 9 8 6 5 6 5 8
9 9 9 9 8 8 9 8 9 8 8 8 8 9 8 7 8 8 7 6 5 5 4 3 4 4 4 4 5 6 7 9 10 10 10 8 8 8 8 8 6 7 7 9
Wind_Direction
217 215 219 218 221 233 238 234 234 235 224 224 230 233 230 231 228 221 218 218 216 207 195 189 183 180 176 174 174 174 175 178 174 175 176 178 181 178 176 176 177 176 175 173
229 230 231 232 231 236 242 245 246 250 231 229 239 239 232 229 227 222 220 219 216 209 197 190 184 180 180 178 178 177 178 179 179 181 179 179 175 176 176 175 183 182 181 178
232 235 231 231 231 231 236 238 241 244 252 249 257 253 237 229 227 224 222 220 218 210 202 192 186 184 181 182 180 181 180 180 180 174 167 166 165 168 179 186 190 189 187 183
243 239 235 233 232 230 235 235 242 242 236 237 220 247 233 220 222 223 220 218 219 216 206 195 188 184 183 183 179 179 179 179 179 174 176 177 181 187 190 185 185 186 190 187
241 236 230 233 232 231 243 242 242 242 238 245 233 246 244 215 218 219 216 214 213 213 206 199 190 185 181 177 176 178 178 179 178 178 181 183 189 189 179 177 183 189 192 193
254 248 236 236 235 231 244 245 249 245 235 237 226 230 247 219 217 214 212 210 208 207 205 200 190 179 177 173 172 175 177 180 179 181 184 187 189 185 181 184 186 189 190 193
254 246 237 233 230 225 219 207 205 204 214 230 210 220 237 228 221 213 209 206 202 200 198 196 189 182 178 175 175 176 178 182 181 183 188 191 191 190 190 187 187 185 188 193
243 246 231 224 219 214 212 207 213 205 205 217 200 219 227 220 234 224 209 201 195 193 193 193 190 183 180 178 178 178 181 183 183 186 191 192 190 191 193 189 186 188 190 192
260 253 247 239 231 214 208 215 232 264 260 235 208 220 227 210 216 221 213 206 200 198 194 193 190 184 179 177 179 181 182 184 186 187 189 191 191 192 192 188 184 185 184 182
275 274 261 247 237 223 215 203 207 218 225 229 224 218 212 198 204 208 209 206 205 196 192 191 188 183 179 178 176 178 182 185 184 186 188 191 192 192 190 186 187 183 182 179
291 270 275 239 219 212 201 202 212 208 235 221 224 232 204 193 198 201 203 200 200 197 192 187 184 178 171 168 171 176 180 182 184 186 186 186 188 186 187 187 186 182 180 179
282 274 269 256 241 228 215 204 202 211 225 236 245 265 290 176 178 186 197 197 194 188 183 174 168 160 157 162 169 175 178 181 183 182 181 183 181 180 184 187 183 179 178 178
299 283 290 275 215 220 226 217 217 231 251 243 236 248 301 357 47 127 175 198 189 171 162 154 153 156 159 161 166 173 179 179 176 174 176 177 178 180 183 182 178 176 175 173
312 261 249 265 280 264 257 251 235 223 229 245 242 259 285 307 317 134 184 200 169 157 157 157 159 161 162 164 166 169 173 171 168 168 171 176 179 179 178 175 174 175 172 170
328 275 274 278 277 263 252 247 241 235 231 236 250 255 263 273 265 191 172 151 135 146 157 163 166 165 163 165 166 166 167 165 163 166 171 175 172 168 167 169 170 170 168 167
312 284 291 279 274 271 266 248 237 236 234 239 257 264 266 273 288 130 157 168 167 171 176 175 169 168 170 172 170 166 166 164 161 166 170 165 163 163 165 166 163 161 162 162
260 274 286 275 283 286 259 240 229 229 230 233 245 258 289 301 311 270 195 194 186 200 197 192 186 180 178 176 170 169 165 158 161 165 165 163 162 163 162 159 160 163 164 159
231 253 262 276 278 242 248 268 241 234 240 248 257 274 292 294 293 301 9 13 299 230 223 206 192 184 176 165 158 156 154 157 161 163 165 164 162 161 157 157 162 162 157 159
215 218 240 255 262 269 267 264 253 242 251 280 279 288 313 315 307 290 358 345 319 287 240 205 192 181 162 159 154 151 155 158 162 168 169 167 162 160 159 161 161 155 151 153
204 200 222 242 254 254 304 326 308 246 250 320 308 313 324 337 294 301 336 332 330 333 335 138 140 133 144 156 150 154 163 165 171 172 169 163 161 161 162 160 153 145 145 147
221 210 218 233 246 267 309 323 347 206 288 330 324 327 324 299 284 308 323 327 329 330 335 355 126 151 166 155 152 163 169 177 171 160 158 157 157 158 155 148 143 142 140 140
233 227 218 222 229 245 330 2 6 315 330 331 338 333 321 310 309 310 313 319 325 330 334 341 345 166 160 157 160 172 181 172 153 150 151 152 152 149 146 143 143 145 145 145
229 227 230 227 245 282 304 294 293 312 321 326 330 326 325 320 315 311 307 308 306 305 299 287 232 192 173 170 172 180 178 154 148 148 150 149 144 144 146 148 149 148 151 151
263 263 264 267 269 284 288 302 309 320 317 319 319 317 317 313 309 305 302 297 292 291 284 270 235 203 200 192 190 182 162 152 151 152 151 147 146 144 143 146 151 155 159 157
266 278 271 271 278 287 283 292 303 305 315 318 317 313 308 304 302 302 299 294 287 282 273 247 221 216 211 196 188 170 159 153 154 153 150 147 146 145 141 136 142 152 161 164
245 248 252 260 273 280 290 306 310 310 308 306 306 306 302 293 289 292 291 288 281 274 268 249 231 220 209 190 182 171 164 160 157 154 153 151 148 145 141 133 109 89 116 129